EST,Max TemperatureF,Mean TemperatureF,Min TemperatureF,Max Dew PointF,MeanDew PointF,Min DewpointF,Max Humidity, Mean Humidity, Min Humidity, Max Sea Level PressureIn, Mean Sea Level PressureIn, Min Sea Level PressureIn, Max VisibilityMiles, Mean VisibilityMiles, Min VisibilityMiles, Max Wind SpeedMPH, Mean Wind SpeedMPH, Max Gust SpeedMPH,PrecipitationIn, CloudCover, Events, WindDirDegrees
2013-2-1,25,17,9,21,10,0,93,75,56,30.40,30.09,29.80,10,4,0,25,10,32,0.00,7,Fog-Snow,264
2013-2-2,27,16,5,25,16,-1,93,80,58,30.37,30.08,29.96,10,5,1,17,5,16,0.00,6,Snow,215
2013-2-3,28,24,21,25,20,10,93,79,63,30.08,29.89,29.81,10,4,0,17,7,26,0.00,8,Fog-Snow,254
2013-2-4,33,26,19,31,21,10,96,78,54,30.12,29.95,29.85,10,5,0,13,7,17,0.07,8,Fog-Snow,208
2013-2-5,37,34,32,34,31,27,96,88,70,29.94,29.87,29.83,10,5,1,18,4,29,0.49,8,Rain-Snow,226
2013-2-6,33,28,23,32,27,19,93,82,72,30.32,30.15,29.93,9,6,2,10,3,,0.04,7,,283
2013-2-7,48,34,21,33,26,19,96,76,46,30.29,30.17,29.96,10,6,0,9,2,,0.00,2,Fog,85
2013-2-8,42,35,28,37,30,20,93,77,67,30.20,29.93,29.81,10,8,2,18,8,26,0.13,7,Rain-Snow,260
2013-2-9,35,30,24,20,18,15,80,66,46,30.40,30.33,30.23,10,8,2,12,6,,0.00,5,Snow,296
2013-2-10,55,38,21,35,22,14,85,56,31,30.34,30.17,29.96,10,10,5,12,2,20,0.07,3,Rain,133
2013-2-11,62,52,41,47,34,19,93,56,24,29.95,29.83,29.73,10,10,8,29,10,43,0.03,4,Rain,243
2013-2-12,50,41,30,25,23,19,69,49,32,30.09,29.99,29.91,10,10,10,20,12,29,0.12,2,,255
2013-2-13,45,36,28,32,28,22,96,79,49,29.91,29.76,29.62,10,7,1,15,3,20,0.08,7,Rain-Snow,305
2013-2-14,44,37,30,31,27,24,82,68,55,30.00,29.95,29.90,10,10,10,13,7,17,0.00,6,,204
2013-2-15,39,36,30,32,30,25,93,84,57,30.06,30.02,29.93,10,6,1,13,5,18,0.10,7,Snow,234
2013-2-16,30,26,21,27,20,14,93,77,58,30.05,29.99,29.92,10,7,1,14,5,18,0.01,7,Snow,310
2013-2-17,21,18,14,18,10,3,86,69,48,30.28,30.07,29.92,10,6,0,17,11,24,0.02,7,Snow,285
2013-2-18,50,29,8,29,16,2,80,56,37,30.33,30.18,29.91,10,10,10,13,3,20,0.00,0,,178
2013-2-19,46,36,26,37,28,17,87,70,39,29.99,29.83,29.73,10,8,1,24,12,41,0.08,7,Rain-Snow,249
2013-2-20,27,23,19,18,15,9,86,69,57,30.26,30.12,29.99,10,6,0,18,12,28,0.00,8,Snow,275
2013-2-21,30,24,19,16,13,9,80,66,54,30.33,30.28,30.22,10,9,2,10,6,,0.00,5,Snow,300
2013-2-22,50,37,24,40,31,15,86,71,54,30.22,30.03,29.96,10,10,5,9,5,,0.04,6,Rain,101
2013-2-23,55,45,34,41,35,30,93,76,49,29.96,29.90,29.82,10,9,7,12,2,20,0.00,5,,266
2013-2-24,35,30,24,30,22,17,85,70,60,30.16,30.03,29.88,10,10,9,15,5,22,0.00,6,,292
2013-2-25,44,31,18,22,20,14,89,62,42,30.22,30.13,30.02,10,9,7,8,2,,0.00,1,,42
2013-2-26,46,40,33,39,31,18,89,69,49,30.02,29.72,29.54,10,8,2,18,6,33,0.54,6,Rain,84
2013-2-27,43,38,33,40,34,30,92,83,65,29.72,29.65,29.55,10,8,1,17,7,28,0.24,8,Rain-Snow,241
2013-2-28,34,34,33,31,29,26,92,84,75,29.83,29.74,29.66,10,6,1,13,9,21,0.03,8,Snow,255